P/2007 N1 = 2000 P3 (McNaught)

Epoch 2007 Sept. 17.0 TT = JDT 2454360.5  

T 2007 Sept. 13.09792 TT                                Nakano

q   2.0479219            (2000.0)            P               Q

n   0.14852330     Peri.  274.16702     +0.92431891     -0.35257924

a   3.5313410      Node   106.52791     +0.38162095     +0.85410056

e   0.4200724      Incl.    8.76114     -0.00012294     +0.38236122

P   6.64

From 108 observations 2000-2007, mean residual 0".66.

Residuals in seconds of arc 

2000/                     070712 A55  0.5+  0.2-    070810 850 (5.3+  2.6+) 

000805 608  0.6-  0.6+    070712 A55  0.1+  0.0     070810 423  1.0-  0.3-  

000805 608  0.9-  0.0     070712 A55  0.2-  0.3+    070810 423  1.6-  0.1-  

000805 608  0.6-  0.1-    070715 372  0.2+  0.6+    070810 349  0.1+  1.1-  

000821 699 (2.3-  0.2-)   070716 204  0.5+  0.1+    070810 349  0.3+  1.0-  

000821 699  0.2+  1.0+    070716 204  0.3+  0.1-    070811 204  0.1-  0.2-  

000821 699 (2.3-  1.2+)   070716 673  1.3+  0.1+    070811 423  0.4+  0.1+  

000821 699  0.8-  0.7+    070716 673  1.0+  0.2+    070811 423  0.0   0.0   

000826 704  0.2+  0.2-    070716 673  1.2+  0.5+    070812 215  1.8-  0.5-  

000826 704  0.2-  1.5-    070716 673  1.4+  0.6+    070822 585 (2.1-  0.2+) 

000826 704 (1.7-  2.5-)   070717 673  0.6+  0.6+    070822 585  0.1-  0.3+  

000903 608  0.0   0.6+    070717 673  0.8+  0.3+    070822 585  0.3-  0.4+  

000903 608  1.1-  0.0     070717 673  0.6+  0.8+    070822 585  0.5+  0.4+  

001130 608  1.3+  1.6+    070717 673  0.8+  0.8+    070822 704  0.1-  0.3-  

001130 608  0.7+  1.5+    070718 673  1.1+  0.5+    070822 704  0.1+  0.3+  

001130 608  0.8+  1.7+    070718 673  0.4+  0.6+    070822 704  0.1+  0.3+  

001219 608  0.3+  0.2-    070718 673  0.8+  0.7+    070822 704  0.1-  0.1-  

001219 608  0.4+  0.0     070718 673  0.9+  0.2+    070822 704  0.0   0.1+  

001219 608  0.2-  0.5+    070719 673  0.9+  0.1-    070824 213  0.4+  0.1+  

2002/                     070719 673  0.8+  0.7-    070824 213  0.3+  0.1+  

020121 704  0.0   1.1+    070719 673  0.2+  0.2+    070824 213  0.4+  0.0   

020121 704  0.8+  0.4-    070719 673 (2.7+  0.8+)   070824 372  1.8-  1.7-  

020121 704 (0.3+  2.7-)   070720 A79 (1.8-  3.4-)   070825 585  0.2-  0.3+  

2007/                     070720 A79 (1.6-  2.8-)   070825 585  0.4+  0.4+  

070710 E12  0.2-  0.8-    070720 A79 (0.7-  2.6-)   070906 B42 (2.7+  1.4+) 

070710 E12  0.9-  0.2-    070722 850  0.2+  0.7-    070907 B42 (2.3+  0.4+) 

070710 E12  0.3-  0.6+    070722 850  0.2-  0.9-    070911 213  0.5-  0.7+  

070710 E12  1.0+  0.3-    070722 850  0.0   0.3-    070911 213  0.7+  0.2+  

070710 E12  0.5+  0.4-    070723 349  0.1+  0.1-    070911 213  0.4-  0.0   

070710 E12  0.7+  0.3-    070723 349  0.1+  0.3-    070911 703  0.7-  0.9-  

070711 703 (2.3-  0.3-)   070728 213  1.0-  0.4+    070911 703  0.5-  0.1-  

070711 703  0.2-  0.7-    070728 213  1.0-  0.4+    070911 703  1.3-  0.2-  

070711 703  0.8-  0.4-    070728 213  1.1-  0.4+    070911 703  1.2-  1.0-  

070711 703  0.8-  1.5-    070803 423  0.4+  0.5-    070911 703  0.9+  0.5-  

070711 474  0.3+  0.0     070803 423  0.5-  0.4+    070911 703  0.1+  0.0   

070711 474  0.6-  0.1-    070806 585  0.0   0.2-    070911 703  0.3-  0.0   

070711 E12  0.3+  0.1-    070806 585  0.1+  0.4-    070911 703  0.7+  0.1-  

070711 474  0.2+  0.2-    070806 585  0.8-  1.0-    070911 703  0.2-  0.3+  

070711 474  0.3+  0.0     070806 585  1.0-  1.1+    070911 703  1.2+  0.2+  

070711 E12  0.4+  0.4-    070808 850  1.0-  0.2+    070911 703  0.0   0.0   

070711 E12  1.0+  0.4-    070808 850  0.8+  1.4-    070911 703  0.4-  1.4+  

070712 A55  0.3-  0.1-    070810 850 (5.6+  2.2+)                           



NAKANO

         **** Don't distribute anyone except personal use only ****

                (C) Copyright 2007 OAA/ComputingSection

write mail from CFAD0::NAKANO on 2007-09-16 02:42:26(JST).

 

◎P/2007 N1の連結軌道



 2007年7月10日から8月24日までに行なわれた74個の観測から決定した

軌道(周期の平均誤差が±1.12日)から,2000年8月5日(KTGGUQ;NEAT),

21日(28L108;LONEOS)と11月(LZWRM4;NEAT)から報告されていた17等

級のサーベイ天体との同定が見つかった.初期軌道から2000年8月5日の

残差は,赤経方向に-1o.7,赤緯方向に-0o.4,近日点通過時刻の補正値に

して,儺=-3.28日であった.前回の近日点通過は,T= 2001年1月12日で,

彗星は,これで2回の出現を記録したことになる.



    P/2007 N1 = KTGGUQ = 28L108 = LZWRM4 (McNaught)

Epoch 2007 Sept. 17.0 TT = JDT 2454360.5  

T 2007 Sept. 13.08728 TT                                Nakano

q   2.0479343            (2000.0)            P               Q

n   0.14852350     Peri.  274.16168     +0.92434543     -0.35250976

a   3.5313379      Node   106.52893     +0.38155668     +0.85413034

e   0.4200684      Incl.    8.76118     -0.00015261     +0.38235876

P   6.64

From 84 observations 2000-2007, mean residual 0".64.

 

Date/        TT  R.A.(2000) Decl.     Delta   r     Daily motion  Mag.  Moon Age

              h    h  m       。  ,                      ,  / PA 。  m1      。

2007 Sept. 1 18  02 56.58  +03 22.6   1.403  2.050    13.6 /  94  16.4   18  .76

           2 18  02 57.49  +03 21.6   1.394  2.050    13.2 /  95  16.3   20  .65

           3 18  02 58.36  +03 20.6   1.385  2.049    12.8 /  95  16.3   29  .54

           4 18  02 59.21  +03 19.4   1.377  2.049    12.4 /  96  16.3   41  .43

           5 18  03 00.04  +03 18.1   1.368  2.049    12.0 /  97  16.3   53  .32

           6 18  03 00.83  +03 16.6   1.360  2.049    11.6 /  98  16.3   65  .22

           7 18  03 01.60  +03 15.1   1.351  2.048    11.2 /  98  16.3   78  .14

           8 18  03 02.34  +03 13.4   1.343  2.048    10.8 /  99  16.3   90  .08

           9 18  03 03.05  +03 11.7   1.335  2.048    10.4 / 100  16.2  102  .03

          10 18  03 03.73  +03 09.8   1.327  2.048    10.0 / 101  16.2  113  .01

          11 18  03 04.38  +03 07.8   1.319  2.048     9.5 / 103  16.2  125  .00

          12 18  03 05.01  +03 05.8   1.311  2.048     9.1 / 104  16.2  136  .01

          13 18  03 05.60  +03 03.6   1.303  2.048     8.7 / 105  16.2  146  .05

          14 18  03 06.16  +03 01.4   1.295  2.048     8.3 / 106  16.2  155  .09

          15 18  03 06.69  +02 59.0   1.288  2.048     7.9 / 108  16.2  160  .16

          16 18  03 07.19  +02 56.6   1.280  2.048     7.5 / 110  16.2  160  .23

          17 18  03 07.66  +02 54.1   1.273  2.048     7.0 / 112  16.1  154  .32

          18 18  03 08.09  +02 51.5   1.266  2.048     6.6 / 114  16.1  145  .41

          19 18  03 08.50  +02 48.8   1.259  2.049     6.2 / 116  16.1  135  .50

          20 18  03 08.87  +02 46.1   1.252  2.049     5.8 / 119  16.1  124  .60

          21 18  03 09.21  +02 43.3   1.245  2.049     5.4 / 122  16.1  112  .70

          22 18  03 09.52  +02 40.4   1.238  2.049     5.1 / 125  16.1  100  .79

          23 18  03 09.80  +02 37.5   1.232  2.050     4.7 / 129  16.1   87  .88

          24 18  03 10.04  +02 34.6   1.225  2.050     4.4 / 133  16.1   73  .94

          25 18  03 10.25  +02 31.6   1.219  2.050     4.1 / 139  16.0   60  .98

          26 18  03 10.43  +02 28.5   1.213  2.051     3.8 / 145  16.0   47 1.00

          27 18  03 10.58  +02 25.4   1.207  2.051     3.6 / 151  16.0   34  .99

          28 18  03 10.69  +02 22.3   1.201  2.052     3.4 / 159  16.0   24  .94

          29 18  03 10.77  +02 19.2   1.195  2.052     3.2 / 167  16.0   20  .88

          30 18  03 10.82  +02 16.0   1.190  2.053     3.2 / 176  16.0   26  .79

     Oct.  1 18  03 10.84  +02 12.8   1.184  2.053     3.2 / 185  16.0   36  .68

NAKANO

         **** Don't distribute anyone except personal use only ****

                (C) Copyright 2007 OAA/ComputingSection

write mail from CFAD0::NAKANO on 2007-09-02 06:06:45(JST).

 

◎P/2007 N1の軌道と予報位置



 上尾の門田健一氏から,7月23日の観測が報告されました.氏のCCD全光度は,

17.0等でした.彗星は,今後,少し明るくなるでしょう.



    P/2007 N1 (McNaught)

T 2007 Sept. 15.00463 TT                                Nakano

q   2.0347942            (2000.0)            P               Q

n   0.15942525     Peri.  275.24413     +0.92078222     -0.36176579

a   3.3684594      Node   106.02712     +0.39005276     +0.84972657

e   0.3959273      Incl.    8.73102     +0.00435258     +0.38352349

P   6.18 (+/-18.82 days)

From 40 observations 2007 July 10-23.

 

Date/        TT  R.A.(2000) Decl.     Delta   r     Daily motion  Mag.  Moon Age

              h    h  m       。  ,                      ,  / PA 。  m1      。

2007 July 25 18  02 07.23  +02 23.4   1.773  2.071    24.0 /  81  16.9  137  .81

          26 18  02 08.81  +02 27.3   1.762  2.070    23.8 /  81  16.9  126  .88

          27 18  02 10.38  +02 31.2   1.751  2.069    23.7 /  81  16.9  114  .94

          28 18  02 11.94  +02 34.9   1.740  2.067    23.5 /  81  16.9  102  .98

          29 18  02 13.49  +02 38.4   1.729  2.066    23.3 /  81  16.8   89 1.00

          30 18  02 15.03  +02 41.9   1.719  2.065    23.1 /  82  16.8   76  .99

          31 18  02 16.55  +02 45.2   1.708  2.063    22.9 /  82  16.8   63  .96

     Aug.  1 18  02 18.06  +02 48.4   1.697  2.062    22.7 /  82  16.8   50  .91

           2 18  02 19.56  +02 51.5   1.686  2.061    22.4 /  82  16.8   37  .83

           3 18  02 21.04  +02 54.4   1.676  2.060    22.2 /  83  16.8   25  .74

           4 18  02 22.52  +02 57.2   1.665  2.059    22.0 /  83  16.7   16  .63

           5 18  02 23.97  +02 59.9   1.654  2.057    21.8 /  83  16.7   17  .52

           6 18  02 25.42  +03 02.4   1.644  2.056    21.5 /  84  16.7   26  .40

           7 18  02 26.84  +03 04.8   1.633  2.055    21.3 /  84  16.7   37  .29

           8 18  02 28.26  +03 07.1   1.623  2.054    21.0 /  84  16.7   50  .20

           9 18  02 29.65  +03 09.3   1.612  2.053    20.8 /  84  16.7   63  .12

          10 18  02 31.03  +03 11.3   1.602  2.052    20.5 /  85  16.6   75  .06

          11 18  02 32.40  +03 13.1   1.592  2.051    20.3 /  85  16.6   88  .02

          12 18  02 33.74  +03 14.9   1.581  2.050    20.0 /  85  16.6  100  .00

          13 18  02 35.07  +03 16.5   1.571  2.049    19.7 /  86  16.6  112  .01

          14 18  02 36.39  +03 17.9   1.561  2.049    19.4 /  86  16.6  124  .03

          15 18  02 37.68  +03 19.3   1.551  2.048    19.1 /  86  16.6  135  .08

          16 18  02 38.96  +03 20.5   1.541  2.047    18.8 /  87  16.5  146  .14

          17 18  02 40.21  +03 21.5   1.531  2.046    18.6 /  87  16.5  155  .21

          18 18  02 41.45  +03 22.5   1.521  2.045    18.3 /  87  16.5  162  .29

          19 18  02 42.67  +03 23.3   1.511  2.045    17.9 /  88  16.5  163  .38

          20 18  02 43.87  +03 23.9   1.501  2.044    17.6 /  88  16.5  157  .48

          21 18  02 45.04  +03 24.5   1.491  2.043    17.3 /  89  16.5  148  .57

          22 18  02 46.20  +03 24.9   1.482  2.042    17.0 /  89  16.5  138  .67

          23 18  02 47.33  +03 25.1   1.472  2.042    16.7 /  90  16.4  127  .76

          24 18  02 48.45  +03 25.3   1.463  2.041    16.3 /  90  16.4  115  .84

          25 18  02 49.54  +03 25.3   1.453  2.041    16.0 /  90  16.4  103  .91

          26 18  02 50.61  +03 25.2   1.444  2.040    15.7 /  91  16.4   90  .96

          27 18  02 51.65  +03 24.9   1.434  2.040    15.3 /  91  16.4   77  .99

          28 18  02 52.68  +03 24.5   1.425  2.039    15.0 /  92  16.4   63 1.00

          29 18  02 53.68  +03 24.0   1.416  2.039    14.6 /  92  16.3   50  .98

          30 18  02 54.65  +03 23.4   1.407  2.038    14.2 /  93  16.3   37  .93

          31 18  02 55.60  +03 22.7   1.398  2.038    13.9 /  94  16.3   26  .85

     Sept. 1 18  02 56.53  +03 21.8   1.389  2.037    13.5 /  94  16.3   18  .76

NAKANO

         **** Don't distribute anyone except personal use only ****

                (C) Copyright 2007 OAA/ComputingSection

write mail from CFAD0::NAKANO on 2007-07-25 04:10:37(JST).

 



戻ります。